CQ0XBF-11 Chamusca PT current weather conditions

sailwx.info

Wind from 132 at 3 knots gusting 11

Air temperature 15.0° C
Dewpoint 9.1° C

Last reported at 2016-Dec-09 10:54 UTC.
Time now 2016-Dec-09 11:39 UTC

Location: N 39°21' W 008°28'.
View on Google Maps.

See reports from other nearby stations

  
Tides and Currents Weather Stations Pressure Air Temp Water Temp Dewpoint Dewpoint Depression Visibility Wind Speed Wind Dir Waves Ship Positions
date/time (UTC)wind fromknots sea level pressurealtimeterstation pressurevisibilityair tempwater tempwave heightnotes
2016-Dec-09 10:54 132 3 gusting 11 15.0
2016-Dec-09 10:48 120 6 gusting 12 14.4
2016-Dec-09 10:44 125 6 gusting 13 14.4
2016-Dec-09 10:38 119 4 gusting 14 13.9
2016-Dec-09 10:34 137 6 gusting 12 13.9
2016-Dec-09 10:28 108 3 gusting 11 13.9
2016-Dec-09 10:24 042 4 gusting 17 13.3
2016-Dec-09 10:18 125 6 gusting 13 13.3
2016-Dec-09 10:14 081 9 gusting 15 13.3
2016-Dec-09 10:08 168 6 gusting 14 12.8
2016-Dec-09 10:04 098 7 gusting 13 12.8
2016-Dec-09 10:00 175 5 gusting 19 12.8
2016-Dec-09 09:54 112 5 gusting 22 12.2
2016-Dec-09 09:50 067 6 gusting 13 12.2
2016-Dec-09 09:43 102 6 gusting 12 12.2
2016-Dec-09 09:39 018 5 gusting 13 12.2
2016-Dec-09 09:33 133 5 gusting 13 11.7
2016-Dec-09 09:29 129 6 gusting 16 11.7
2016-Dec-09 09:23 150 6 gusting 14 11.1
2016-Dec-09 09:19 118 6 gusting 13 11.1
2016-Dec-09 09:13 115 6 gusting 19 11.1
2016-Dec-09 09:09 116 6 gusting 17 10.6
2016-Dec-09 09:03 111 13 gusting 13 10.6
2016-Dec-09 08:59 090 6 gusting 14 10.6
2016-Dec-09 08:53 115 9 gusting 16 10.0
2016-Dec-09 08:49 075 9 gusting 16 10.0
2016-Dec-09 08:45 094 6 gusting 14 10.0
2016-Dec-09 08:39 132 8 gusting 15 9.4
2016-Dec-09 08:35 157 7 gusting 16 9.4
2016-Dec-09 08:28 108 8 gusting 14 9.4
2016-Dec-09 08:24 129 7 gusting 13 9.4
2016-Dec-09 08:18 098 6 gusting 16 9.4
2016-Dec-09 08:14 095 8 gusting 14 9.4
2016-Dec-09 08:08 108 8 gusting 15 9.4
2016-Dec-09 08:04 084 7 gusting 14 8.9
2016-Dec-09 07:58 112 7 gusting 14 8.9
2016-Dec-09 07:54 109 7 gusting 14 8.9
2016-Dec-09 07:48 108 7 gusting 13 8.9
2016-Dec-09 07:44 111 8 gusting 14 8.9
2016-Dec-09 07:38 087 6 gusting 13 8.9
2016-Dec-09 07:34 098 7 gusting 14 8.9
2016-Dec-09 07:30 116 6 gusting 17 8.9
2016-Dec-09 07:24 135 6 gusting 12 8.9
2016-Dec-09 07:20 144 6 gusting 11 8.9
2016-Dec-09 07:14 108 6 gusting 13 8.9
2016-Dec-09 07:09 125 8 gusting 13 8.9
2016-Dec-09 07:03 104 6 gusting 9 8.9
2016-Dec-09 06:59 109 7 gusting 8 8.9
2016-Dec-09 06:53 135 5 gusting 8 9.4
2016-Dec-09 06:49 088 5 gusting 12 9.4
2016-Dec-09 06:43 106 6 gusting 7 9.4
2016-Dec-09 06:39 123 4 gusting 7 9.4
2016-Dec-09 06:33 075 5 gusting 9 8.9
2016-Dec-09 06:29 130 3 gusting 9 8.9
2016-Dec-09 06:23 137 3 gusting 8 8.9
2016-Dec-09 06:19 102 6 gusting 12 8.9
2016-Dec-09 06:13 137 4 gusting 10 9.4
2016-Dec-09 06:09 135 2 gusting 10 9.4
2016-Dec-09 06:05 105 5 gusting 13 8.9
2016-Dec-09 05:59 122 6 gusting 11 8.9
2016-Dec-09 05:54 067 7 gusting 11 8.9
2016-Dec-09 05:48 146 6 gusting 13 8.9
2016-Dec-09 05:44 143 5 gusting 11 8.9
2016-Dec-09 05:38 127 6 gusting 12 8.9
2016-Dec-09 05:34 105 4 gusting 10 8.9
2016-Dec-09 05:28 105 4 gusting 8 8.9
2016-Dec-09 05:24 101 6 gusting 9 8.9
2016-Dec-09 05:18 106 6 gusting 10 8.9
2016-Dec-09 05:14 125 5 gusting 10 8.9
2016-Dec-09 05:08 066 5 gusting 10 8.9
2016-Dec-09 05:04 087 6 gusting 12 8.9
2016-Dec-09 04:58 092 7 gusting 8 8.9
2016-Dec-09 04:54 111 6 gusting 10 8.9
2016-Dec-09 04:50 136 5 gusting 13 8.9
2016-Dec-09 04:44 144 6 gusting 12 8.9
2016-Dec-09 04:40 125 6 gusting 9 8.9
2016-Dec-09 04:33 126 6 gusting 9 8.9
2016-Dec-09 04:29 133 6 gusting 9 8.9
2016-Dec-09 04:23 092 7 gusting 9 8.9
2016-Dec-09 04:19 073 5 gusting 11 8.9
2016-Dec-09 04:13 119 6 gusting 12 9.4
2016-Dec-09 04:09 095 6 gusting 12 9.4
2016-Dec-09 04:03 085 6 gusting 8 8.9
2016-Dec-09 03:59 118 6 gusting 9 9.4
2016-Dec-09 03:53 116 6 gusting 9 9.4
2016-Dec-09 03:49 136 6 gusting 7 9.4
2016-Dec-09 03:43 113 6 gusting 9 9.4
2016-Dec-09 03:39 149 6 gusting 7 9.4
2016-Dec-09 03:35 102 4 gusting 9 9.4
2016-Dec-09 03:29 082 4 gusting 7 9.4
2016-Dec-09 03:25 077 4 gusting 9 9.4
2016-Dec-09 03:18 109 6 gusting 10 9.4
2016-Dec-09 03:14 104 4 gusting 8 9.4
2016-Dec-09 03:08 139 5 gusting 11 9.4
2016-Dec-09 03:04 099 5 gusting 11 9.4
2016-Dec-09 02:58 120 7 gusting 14 9.4
2016-Dec-09 02:54 085 7 gusting 16 9.4
2016-Dec-09 02:48 143 4 gusting 13 9.4
2016-Dec-09 02:44 098 6 gusting 13 9.4
2016-Dec-09 02:38 130 7 gusting 12 9.4
2016-Dec-09 02:34 109 6 gusting 12 10.0
2016-Dec-09 02:28 113 9 gusting 13 10.0
2016-Dec-09 02:24 102 7 gusting 13 10.0
2016-Dec-09 02:20 140 6 gusting 12 10.0
2016-Dec-09 02:14 097 6 gusting 18 10.0
2016-Dec-09 02:10 039 7 gusting 14 10.0
2016-Dec-09 02:04 136 6 gusting 13 10.0
2016-Dec-09 01:59 120 8 gusting 14 10.0
2016-Dec-09 01:53 122 7 gusting 14 10.0
2016-Dec-09 01:49 139 7 gusting 15 10.0
2016-Dec-09 01:43 126 8 gusting 12 10.0
2016-Dec-09 01:39 112 6 gusting 10 10.0
2016-Dec-09 01:33 130 9 gusting 13 10.6
2016-Dec-09 01:29 116 8 gusting 15 10.6
2016-Dec-09 01:23 142 6 gusting 14 10.6
2016-Dec-09 01:19 068 8 gusting 17 10.6
2016-Dec-09 01:13 132 7 gusting 13 10.6
2016-Dec-09 01:09 097 7 gusting 14 10.6
2016-Dec-09 01:03 160 4 gusting 14 10.6
2016-Dec-09 00:59 071 13 gusting 18 10.6
2016-Dec-09 00:55 077 9 gusting 13 10.6
2016-Dec-09 00:49 126 8 gusting 19 10.6
2016-Dec-09 00:44 133 9 gusting 15 10.6
2016-Dec-09 00:38 064 11 gusting 13 10.6
2016-Dec-09 00:34 112 9 gusting 14 10.6
2016-Dec-09 00:28 158 5 gusting 13 10.6
2016-Dec-09 00:24 139 7 gusting 14 10.6
2016-Dec-09 00:18 127 6 gusting 17 10.6
2016-Dec-09 00:14 133 7 gusting 13 10.6
2016-Dec-09 00:08 129 6 gusting 16 10.6
2016-Dec-09 00:04 090 9 gusting 14 11.1
2016-Dec-08 23:58 071 8 gusting 13 10.6
2016-Dec-08 23:54 154 7 gusting 12 11.1
2016-Dec-08 23:48 098 7 gusting 14 10.6
2016-Dec-08 23:44 140 6 gusting 13 11.1
2016-Dec-08 23:40 050 8 gusting 13 11.1
2016-Dec-08 23:34 118 7 gusting 14 11.1
2016-Dec-08 23:30 147 7 gusting 13 11.1
2016-Dec-08 23:23 132 8 gusting 12 11.1
2016-Dec-08 23:19 140 9 gusting 15 11.1
2016-Dec-08 23:13 130 7 gusting 15 11.1
2016-Dec-08 23:09 132 9 gusting 17 11.1
2016-Dec-08 23:03 150 9 gusting 14 11.1
2016-Dec-08 22:59 101 7 gusting 14 11.1
2016-Dec-08 22:53 085 9 gusting 12 11.1
2016-Dec-08 22:49 112 5 gusting 12 11.1
2016-Dec-08 22:43 095 8 gusting 13 11.1
2016-Dec-08 22:39 126 7 gusting 13 11.1
2016-Dec-08 22:33 122 7 gusting 16 11.7
2016-Dec-08 22:29 140 6 gusting 11 11.7
2016-Dec-08 22:25 095 6 gusting 12 11.7
2016-Dec-08 22:19 106 6 gusting 14 11.7
2016-Dec-08 22:15 132 6 gusting 13 11.7
2016-Dec-08 22:08 127 8 gusting 12 11.7
2016-Dec-08 22:04 099 7 gusting 16 11.7
2016-Dec-08 21:58 080 11 gusting 13 11.7
2016-Dec-08 21:54 135 8 gusting 13 11.7
2016-Dec-08 21:48 099 7 gusting 14 11.7
2016-Dec-08 21:44 108 6 gusting 13 11.7
2016-Dec-08 21:38 135 11 gusting 11 11.7
2016-Dec-08 21:34 087 11 gusting 14 11.7
2016-Dec-08 21:28 115 6 gusting 13 11.7
2016-Dec-08 21:24 092 9 gusting 13 11.7
2016-Dec-08 21:18 099 6 gusting 13 11.7
2016-Dec-08 21:14 116 8 gusting 13 11.7
2016-Dec-08 21:10 097 8 gusting 12 11.7
2016-Dec-08 21:04 118 6 gusting 11 11.7
2016-Dec-08 21:00 111 6 gusting 10 11.7
2016-Dec-08 20:54 116 7 gusting 10 11.7
2016-Dec-08 20:49 094 7 gusting 11 11.7
2016-Dec-08 20:43 146 5 gusting 11 11.7
2016-Dec-08 20:39 120 6 gusting 10 11.7
2016-Dec-08 20:33 101 7 gusting 10 12.2
2016-Dec-08 20:29 139 6 gusting 10 12.2
2016-Dec-08 20:23 098 6 gusting 11 12.2
2016-Dec-08 20:19 099 6 gusting 13 12.2
2016-Dec-08 20:13 109 8 gusting 11 12.2
2016-Dec-08 20:09 102 7 gusting 8 12.2
2016-Dec-08 20:03 136 6 gusting 10 12.2
2016-Dec-08 19:59 132 5 gusting 7 12.2
2016-Dec-08 19:53 106 5 gusting 8 12.2
2016-Dec-08 19:49 098 6 gusting 11 12.8
2016-Dec-08 19:45 109 5 gusting 9 12.8
2016-Dec-08 19:39 106 6 gusting 8 12.8
2016-Dec-08 19:34 130 4 gusting 9 12.8
2016-Dec-08 19:28 102 5 gusting 9 12.8
2016-Dec-08 19:24 109 6 gusting 10 12.8
2016-Dec-08 19:18 094 5 gusting 9 12.8
2016-Dec-08 19:14 113 6 gusting 8 12.8
2016-Dec-08 19:08 099 6 gusting 9 13.3
2016-Dec-08 19:04 088 5 gusting 8 12.8
2016-Dec-08 18:58 090 2 gusting 9 13.3
2016-Dec-08 18:54 118 7 gusting 8 13.3
2016-Dec-08 18:48 075 7 gusting 8 13.3
2016-Dec-08 18:44 123 6 gusting 11 13.3
2016-Dec-08 18:38 130 5 gusting 11 13.3
2016-Dec-08 18:34 068 6 gusting 13 13.3
2016-Dec-08 18:30 154 5 gusting 9 13.3
2016-Dec-08 18:24 139 6 gusting 12 13.3
2016-Dec-08 18:19 127 6 gusting 11 13.3
2016-Dec-08 18:13 118 5 gusting 8 13.3
2016-Dec-08 18:09 140 4 gusting 8 13.3
2016-Dec-08 18:03 139 4 gusting 6 13.3
2016-Dec-08 17:59 105 6 gusting 9 13.3
2016-Dec-08 17:53 127 6 gusting 7 13.3
2016-Dec-08 17:49 132 5 gusting 6 13.3
2016-Dec-08 17:43 119 3 gusting 8 13.3
2016-Dec-08 17:39 108 3 gusting 7 13.3
2016-Dec-08 17:33 126 6 gusting 6 13.3
2016-Dec-08 17:29 123 5 gusting 6 13.3
2016-Dec-08 17:23 118 5 gusting 8 13.9
2016-Dec-08 17:19 099 3 gusting 6 13.9
2016-Dec-08 17:15 084 3 gusting 5 13.9
2016-Dec-08 17:09 111 3 gusting 5 14.4
2016-Dec-08 17:05 113 2 gusting 3 14.4
2016-Dec-08 16:58 087 1 gusting 3 14.4
2016-Dec-08 16:54 067 0 gusting 2 15.0
2016-Dec-08 16:48 075 2 gusting 3 15.0
2016-Dec-08 16:44 078 2 gusting 3 15.0
2016-Dec-08 16:38 074 15.0
2016-Dec-08 16:34 118 1 gusting 5 15.0
2016-Dec-08 16:28 080 1 gusting 5 15.0
2016-Dec-08 16:24 106 2 gusting 5 15.6
2016-Dec-08 16:14 137 2 gusting 6 15.6
2016-Dec-08 16:08 109 2 gusting 6 15.6
2016-Dec-08 16:04 125 3 gusting 7 15.6
2016-Dec-08 16:00 082 3 gusting 7 15.6
2016-Dec-08 15:54 113 5 gusting 10 15.6
2016-Dec-08 15:50 109 1 gusting 7 15.6
2016-Dec-08 15:43 092 5 gusting 8 15.6
2016-Dec-08 15:39 090 3 gusting 8 15.6
2016-Dec-08 15:33 080 1 gusting 6 16.1
2016-Dec-08 15:29 075 3 gusting 6 16.1
2016-Dec-08 15:23 066 1 gusting 8 16.1
2016-Dec-08 15:19 140 1 gusting 8 16.1
2016-Dec-08 15:13 118 2 gusting 7 16.7
2016-Dec-08 15:09 132 1 gusting 6 16.7
2016-Dec-08 15:03 142 4 gusting 11 16.7
2016-Dec-08 14:59 142 5 gusting 6 16.7
2016-Dec-08 14:53 143 3 gusting 6 17.2
2016-Dec-08 14:49 163 3 gusting 7 17.8
2016-Dec-08 14:45 354 0 gusting 8 17.2
2016-Dec-08 14:39 098 4 gusting 7 16.7
2016-Dec-08 14:35 077 5 gusting 8 16.7
2016-Dec-08 14:28 181 1 gusting 12 16.7
2016-Dec-08 14:24 067 3 gusting 10 16.1
2016-Dec-08 14:18 122 5 gusting 10 16.1
2016-Dec-08 14:14 059 6 gusting 10 16.1
2016-Dec-08 14:08 137 7 gusting 12 15.6
2016-Dec-08 14:04 116 6 gusting 11 15.6
2016-Dec-08 13:58 119 6 gusting 10 15.6
2016-Dec-08 13:54 098 6 gusting 12 15.6
2016-Dec-08 13:48 122 6 gusting 13 16.1
2016-Dec-08 13:44 067 6 gusting 7 16.1
2016-Dec-08 13:38 080 4 gusting 10 16.1
2016-Dec-08 13:34 130 6 gusting 9 16.1
2016-Dec-08 13:28 151 4 gusting 13 15.6
2016-Dec-08 13:24 084 3 gusting 8 15.6
2016-Dec-08 13:20 105 5 gusting 10 15.6
2016-Dec-08 13:14 098 5 gusting 12 15.6
2016-Dec-08 13:09 133 3 gusting 7 15.6
2016-Dec-08 13:03 113 4 gusting 10 15.6
2016-Dec-08 12:59 097 1 gusting 7 15.6
2016-Dec-08 12:53 164 5 gusting 7 15.6
2016-Dec-08 12:49 104 4 gusting 7 15.6
2016-Dec-08 12:43 099 2 gusting 7 15.6
2016-Dec-08 12:39 111 0 gusting 7 15.6
2016-Dec-08 12:33 135 6 gusting 13 15.0
2016-Dec-08 12:29 126 6 gusting 13 15.0
2016-Dec-08 12:23 080 7 gusting 9 15.0
2016-Dec-08 12:17 104 4 gusting 13 15.0
2016-Dec-08 12:13 075 3 gusting 9 15.0
2016-Dec-08 12:09 075 2 gusting 13 15.0
2016-Dec-08 12:05 135 3 gusting 8 15.0
2016-Dec-08 11:59 157 2 gusting 9 15.6
2016-Dec-08 11:55 087 3 gusting 8 15.6
2016-Dec-08 11:48 078 4 gusting 9 15.6
2016-Dec-08 11:44 132 3 gusting 12 15.0
2016-Dec-08 11:38 136 5 gusting 7 15.0
2016-Dec-08 11:34 147 3 gusting 7 15.0
2016-Dec-08 11:28 108 3 gusting 8 14.4
2016-Dec-08 11:24 091 3 gusting 6 14.4
2016-Dec-08 11:18 106 1 gusting 13 13.9
2016-Dec-08 11:14 142 5 gusting 7 13.9
2016-Dec-08 11:08 105 2 gusting 9 13.9
2016-Dec-08 11:04 317 4 gusting 13 13.9
2016-Dec-08 10:58 132 5 gusting 6 13.9
2016-Dec-08 10:52 057 4 gusting 8 14.4
2016-Dec-08 10:50 137 0 gusting 10 14.4
2016-Dec-08 10:44 144 5 gusting 14 13.9
2016-Dec-08 10:40 358 5 gusting 12 13.9
2016-Dec-08 10:33 102 5 gusting 9 13.3
2016-Dec-08 10:29 111 6 gusting 12 13.3
2016-Dec-08 10:23 125 7 gusting 10 13.3
2016-Dec-08 10:19 091 4 gusting 8 13.3
2016-Dec-08 10:13 118 6 gusting 11 12.8
2016-Dec-08 10:09 140 3 gusting 13 12.8
2016-Dec-08 10:03 135 4 gusting 9 12.8
2016-Dec-08 09:59 147 3 gusting 11 12.2
2016-Dec-08 09:53 113 4 gusting 10 12.2
2016-Dec-08 09:49 102 4 gusting 12 11.7
2016-Dec-08 09:43 098 5 gusting 13 11.7
2016-Dec-08 09:39 115 6 gusting 9 11.7
2016-Dec-08 09:33 094 7 gusting 9 11.1
2016-Dec-08 09:29 139 3 gusting 12 11.1
2016-Dec-08 09:25 115 6 gusting 13 11.1
2016-Dec-08 09:19 140 4 gusting 11 11.1
2016-Dec-08 09:14 127 8 gusting 13 10.6
2016-Dec-08 09:08 113 6 gusting 11 10.6
2016-Dec-08 09:04 122 6 gusting 16 10.6
2016-Dec-08 08:58 077 6 gusting 11 10.6
2016-Dec-08 08:54 133 8 gusting 11 10.6
2016-Dec-08 08:48 085 9 gusting 13 10.6
2016-Dec-08 08:44 115 6 gusting 12 10.6
2016-Dec-08 08:38 137 6 gusting 11 10.6
2016-Dec-08 08:34 139 6 gusting 11 10.6
2016-Dec-08 08:28 099 6 gusting 14 10.0
2016-Dec-08 08:24 133 6 gusting 12 10.0
2016-Dec-08 08:18 067 8 gusting 11 10.0
2016-Dec-08 08:14 109 6 gusting 12 10.0
2016-Dec-08 08:10 077 11 gusting 11 10.0
2016-Dec-08 08:04 126 6 gusting 10 10.0
2016-Dec-08 08:00 111 8 gusting 13 10.0
2016-Dec-08 07:53 125 6 gusting 11 10.0
2016-Dec-08 07:49 123 7 gusting 15 10.0
2016-Dec-08 07:43 104 7 gusting 10 10.0
2016-Dec-08 07:39 158 6 gusting 11 10.0
2016-Dec-08 07:33 094 6 gusting 10 10.0
2016-Dec-08 07:29 126 6 gusting 13 10.0
2016-Dec-08 07:23 129 6 gusting 7 10.0
2016-Dec-08 07:19 135 6 gusting 12 10.0
2016-Dec-08 07:13 126 6 gusting 10 10.0
2016-Dec-08 07:09 098 6 gusting 9 10.0
2016-Dec-08 07:03 149 6 gusting 14 10.0
2016-Dec-08 06:59 108 6 gusting 11 10.0
2016-Dec-08 06:55 071 7 gusting 11 10.0
2016-Dec-08 06:49 106 7 gusting 13 10.0
2016-Dec-08 06:45 104 10 gusting 13 10.0
2016-Dec-08 06:38 109 7 gusting 11 10.0
2016-Dec-08 06:34 127 7 gusting 12 10.0
2016-Dec-08 06:28 106 6 gusting 11 10.0
2016-Dec-08 06:24 085 5 gusting 11 10.0
2016-Dec-08 06:18 115 6 gusting 8 10.0
2016-Dec-08 06:14 133 6 gusting 10 10.0
2016-Dec-08 06:08 127 6 gusting 11 10.0
2016-Dec-08 06:04 118 6 gusting 13 10.6
2016-Dec-08 05:58 122 6 gusting 13 10.6
2016-Dec-08 05:54 130 7 gusting 11 10.6
2016-Dec-08 05:48 154 6 gusting 10 10.6
2016-Dec-08 05:44 112 7 gusting 10 10.6
2016-Dec-08 05:40 122 7 gusting 9 10.6
2016-Dec-08 05:34 087 6 gusting 9 10.6
2016-Dec-08 05:30 119 6 gusting 10 10.6
2016-Dec-08 05:23 111 6 gusting 10 10.6
2016-Dec-08 05:19 127 6 gusting 11 10.6
2016-Dec-08 05:13 125 8 gusting 11 10.6
2016-Dec-08 05:09 109 6 gusting 11 11.1
2016-Dec-08 05:03 088 7 gusting 9 10.6
2016-Dec-08 04:59 118 6 gusting 13 11.1
2016-Dec-08 04:53 095 6 gusting 12 11.1
2016-Dec-08 04:49 118 7 gusting 11 11.1
2016-Dec-08 04:43 151 8 gusting 13 11.1
2016-Dec-08 04:39 109 6 gusting 13 11.1
2016-Dec-08 04:33 112 6 gusting 13 11.1
2016-Dec-08 04:29 105 9 gusting 13 11.1
2016-Dec-08 04:23 045 6 gusting 12 11.1
2016-Dec-08 04:19 127 6 gusting 10 11.1
2016-Dec-08 04:15 106 6 gusting 11 11.1
2016-Dec-08 04:08 123 6 gusting 10 11.1
2016-Dec-08 04:04 137 6 gusting 14 11.1
2016-Dec-08 03:58 112 6 gusting 10 11.1
2016-Dec-08 03:54 082 6 gusting 11 11.1
2016-Dec-08 03:48 094 10 gusting 10 11.1
2016-Dec-08 03:44 132 6 gusting 11 11.1
2016-Dec-08 03:38 070 5 gusting 12 11.1
2016-Dec-08 03:34 101 6 gusting 10 11.1
2016-Dec-08 03:28 135 6 gusting 10 11.1
2016-Dec-08 03:24 113 6 gusting 11 11.1
2016-Dec-08 03:18 119 5 gusting 9 11.1
2016-Dec-08 03:14 119 5 gusting 9 11.1
2016-Dec-08 03:10 133 5 gusting 7 11.1
2016-Dec-08 03:04 147 3 gusting 7 11.1
2016-Dec-08 03:00 135 4 gusting 9 11.1
2016-Dec-08 02:53 147 6 gusting 7 11.1
2016-Dec-08 02:49 082 5 gusting 10 11.1
2016-Dec-08 02:43 140 4 gusting 9 11.1
2016-Dec-08 02:39 150 4 gusting 11 11.1
2016-Dec-08 02:33 105 5 gusting 10 11.1
2016-Dec-08 02:29 084 4 gusting 10 11.1
2016-Dec-08 02:23 133 6 gusting 11 11.1
2016-Dec-08 02:19 104 6 gusting 8 11.1
2016-Dec-08 02:13 092 6 gusting 9 11.1
2016-Dec-08 02:09 122 6 gusting 10 11.1
2016-Dec-08 02:03 119 5 gusting 9 11.1
2016-Dec-08 01:59 126 5 gusting 9 11.1
2016-Dec-08 01:55 130 6 gusting 7 11.1
2016-Dec-08 01:49 112 4 gusting 8 11.1
2016-Dec-08 01:45 098 5 gusting 10 11.1
2016-Dec-08 01:38 097 6 gusting 9 11.1
2016-Dec-08 01:34 123 5 gusting 9 11.1
2016-Dec-08 01:28 161 4 gusting 8 11.1
2016-Dec-08 01:24 132 4 gusting 9 11.7
2016-Dec-08 01:18 074 3 gusting 8 11.7
2016-Dec-08 01:14 081 5 gusting 8 11.7
2016-Dec-08 01:08 137 5 gusting 7 11.7
2016-Dec-08 01:04 098 4 gusting 8 11.7
2016-Dec-08 00:58 105 3 gusting 7 11.7
2016-Dec-08 00:54 078 5 gusting 7 11.7
2016-Dec-08 00:48 144 4 gusting 9 11.7
2016-Dec-08 00:44 109 4 gusting 6 11.7
2016-Dec-08 00:40 129 4 gusting 5 11.7
2016-Dec-08 00:34 111 3 gusting 6 11.7
2016-Dec-08 00:30 112 3 gusting 3 11.7
2016-Dec-08 00:24 088 0 gusting 4 11.7
2016-Dec-08 00:19 073 2 gusting 5 11.7
2016-Dec-08 00:13 095 3 gusting 6 11.7
2016-Dec-08 00:09 135 5 gusting 6 11.7
2016-Dec-08 00:03 105 3 gusting 3 11.7
2016-Dec-07 23:59 111 1 gusting 4 12.2
2016-Dec-07 23:53 042 1 gusting 4 12.2
2016-Dec-07 23:49 014 12.2
2016-Dec-07 23:43 040 0 gusting 4 12.2
2016-Dec-07 23:39 035 12.2
2016-Dec-07 23:33 293 12.2
2016-Dec-07 23:29 326 12.2
2016-Dec-07 23:23 354 12.2
2016-Dec-07 23:19 046 12.2
2016-Dec-07 23:15 070 12.8
2016-Dec-07 23:09 106 0 gusting 6 12.8
2016-Dec-07 23:04 045 0 gusting 4 12.8
2016-Dec-07 22:58 120 2 gusting 4 12.8
2016-Dec-07 22:54 090 3 gusting 6 12.8
2016-Dec-07 22:48 084 2 gusting 5 12.8
2016-Dec-07 22:44 095 3 gusting 7 12.8
2016-Dec-07 22:38 059 5 gusting 4 12.8
2016-Dec-07 22:34 085 2 gusting 6 12.8
2016-Dec-07 22:28 071 4 gusting 4 12.8
2016-Dec-07 22:24 080 12.8
2016-Dec-07 22:18 109 2 gusting 6 12.8
2016-Dec-07 22:14 115 2 gusting 7 12.8
2016-Dec-07 22:08 081 4 gusting 7 12.8
2016-Dec-07 22:04 113 6 gusting 6 12.8
2016-Dec-07 22:00 133 3 gusting 6 12.8
2016-Dec-07 21:54 098 4 gusting 7 12.8
2016-Dec-07 21:50 113 3 gusting 6 12.8
2016-Dec-07 21:43 143 3 gusting 7 12.8
2016-Dec-07 21:39 106 5 gusting 7 12.8
2016-Dec-07 21:33 140 4 gusting 7 12.8
2016-Dec-07 21:29 120 5 gusting 6 12.8
2016-Dec-07 21:23 137 4 gusting 7 12.8
2016-Dec-07 21:19 144 5 gusting 8 12.8
2016-Dec-07 21:13 115 5 gusting 8 13.3
2016-Dec-07 21:09 122 4 gusting 6 13.3
2016-Dec-07 21:03 112 3 gusting 6 13.3
2016-Dec-07 20:59 095 3 gusting 4 13.3
2016-Dec-07 20:53 097 1 gusting 2 13.9
2016-Dec-07 20:49 054 13.9
2016-Dec-07 20:45 091 1 gusting 5 13.9
2016-Dec-07 20:39 057 3 gusting 6 13.9
2016-Dec-07 20:35 077 3 gusting 6 13.9
2016-Dec-07 20:28 092 2 gusting 6 13.9
2016-Dec-07 20:24 105 2 gusting 6 13.9
2016-Dec-07 20:18 087 4 gusting 6 13.9
2016-Dec-07 20:14 098 4 gusting 6 13.9
2016-Dec-07 20:08 092 3 gusting 6 13.9
2016-Dec-07 20:04 063 5 gusting 8 13.9
2016-Dec-07 19:58 068 5 gusting 6 13.9
2016-Dec-07 19:54 087 5 gusting 6 13.9
2016-Dec-07 19:48 090 3 gusting 6 13.9
2016-Dec-07 19:44 106 3 gusting 6 13.9
2016-Dec-07 19:38 126 3 gusting 8 13.9
2016-Dec-07 19:34 081 3 gusting 6 13.9
2016-Dec-07 19:30 140 5 gusting 6 13.9
2016-Dec-07 19:24 105 4 gusting 6 13.9
2016-Dec-07 19:20 127 3 gusting 6 13.9
2016-Dec-07 19:14 104 3 gusting 6 13.9
2016-Dec-07 19:09 157 4 gusting 7 13.9
2016-Dec-07 19:03 137 3 gusting 6 13.9
2016-Dec-07 18:59 127 3 gusting 5 13.9
2016-Dec-07 18:53 115 3 gusting 4 13.9
2016-Dec-07 18:49 120 3 gusting 4 13.9
2016-Dec-07 18:43 132 1 gusting 3 14.4
2016-Dec-07 18:39 137 1 gusting 4 14.4
2016-Dec-07 18:33 113 2 gusting 4 14.4
2016-Dec-07 18:29 125 2 gusting 3 14.4
2016-Dec-07 18:23 123 2 gusting 3 14.4
2016-Dec-07 18:19 123 2 gusting 4 14.4
2016-Dec-07 18:13 129 2 gusting 4 14.4
2016-Dec-07 18:09 123 3 gusting 3 14.4
2016-Dec-07 18:05 135 2 gusting 3 14.4
2016-Dec-07 17:59 133 1 gusting 4 14.4
2016-Dec-07 17:54 129 2 gusting 3 14.4
2016-Dec-07 17:48 119 1 gusting 5 14.4
2016-Dec-07 17:44 097 2 gusting 3 15.0
2016-Dec-07 17:38 085 1 gusting 3 15.0
2016-Dec-07 17:34 101 1 gusting 5 15.0
2016-Dec-07 17:28 118 2 gusting 5 15.0
2016-Dec-07 17:24 109 2 gusting 5 15.0
2016-Dec-07 17:18 104 1 gusting 4 15.0
2016-Dec-07 17:14 068 3 gusting 5 15.0
2016-Dec-07 17:08 078 0 gusting 2 15.6
2016-Dec-07 17:04 054 15.6
2016-Dec-07 16:58 317 15.6
2016-Dec-07 16:54 307 16.1
2016-Dec-07 16:50 149 16.1
2016-Dec-07 16:44 323 16.1
2016-Dec-07 16:40 061 16.1
2016-Dec-07 16:33 091 1 gusting 3 16.1
2016-Dec-07 16:29 001 16.1
2016-Dec-07 16:23 067 2 gusting 4 16.1
2016-Dec-07 16:19 053 0 gusting 2 16.1
2016-Dec-07 16:13 068 16.1
2016-Dec-07 16:09 085 16.1
2016-Dec-07 16:03 077 1 gusting 2 16.7
2016-Dec-07 15:59 108 2 gusting 2 16.7
2016-Dec-07 15:53 061 16.7
2016-Dec-07 15:49 073 3 gusting 4 16.1
2016-Dec-07 15:43 144 1 gusting 4 16.1
2016-Dec-07 15:39 102 1 gusting 4 16.7
2016-Dec-07 15:35 130 1 gusting 5 16.7
2016-Dec-07 15:29 133 1 gusting 4 16.7
2016-Dec-07 15:25 118 3 gusting 5 17.2
2016-Dec-07 15:18 119 0 gusting 1 17.2
2016-Dec-07 15:14 137 17.2
2016-Dec-07 15:08 067 17.2
2016-Dec-07 15:04 049 0 gusting 3 17.2
2016-Dec-07 14:58 126 1 gusting 2 17.2
2016-Dec-07 14:54 118 1 gusting 5 17.2
2016-Dec-07 14:48 122 3 gusting 5 16.7
2016-Dec-07 14:44 042 1 gusting 7 16.7
2016-Dec-07 14:38 184 0 gusting 6 16.7
2016-Dec-07 14:34 129 1 gusting 7 16.7
2016-Dec-07 14:28 056 2 gusting 6 16.7
2016-Dec-07 14:24 082 3 gusting 6 16.7
2016-Dec-07 14:20 118 4 gusting 6 16.7
2016-Dec-07 14:14 136 3 gusting 6 17.2
2016-Dec-07 14:10 147 2 gusting 6 17.2
2016-Dec-07 14:04 123 3 gusting 6 17.2
2016-Dec-07 13:59 120 2 gusting 5 17.2
2016-Dec-07 13:53 118 3 gusting 4 16.7
2016-Dec-07 13:49 133 1 gusting 4 17.2
2016-Dec-07 13:43 077 17.2
2016-Dec-07 13:39 104 1 gusting 5 16.7
2016-Dec-07 13:33 123 0 gusting 4 16.7
2016-Dec-07 13:29 104 0 gusting 4 17.2
2016-Dec-07 13:23 127 0 gusting 5 16.7
2016-Dec-07 13:19 039 0 gusting 5 16.7
2016-Dec-07 13:13 127 1 gusting 5 16.7
2016-Dec-07 13:09 120 1 gusting 6 16.7
2016-Dec-07 13:05 057 3 gusting 3 16.7
2016-Dec-07 12:59 129 0 gusting 6 16.7
2016-Dec-07 12:55 052 1 gusting 3 16.7
2016-Dec-07 12:48 098 3 gusting 5 16.7
2016-Dec-07 12:44 108 1 gusting 5 16.1
2016-Dec-07 12:38 135 1 gusting 2 16.7
2016-Dec-07 12:34 057 16.7
2016-Dec-07 12:28 167 1 gusting 6 16.1
2016-Dec-07 12:24 127 4 gusting 4 16.7
2016-Dec-07 12:18 057 16.1
2016-Dec-07 12:14 105 1 gusting 6 16.1
2016-Dec-07 12:08 084 3 gusting 5 16.1
2016-Dec-07 12:04 140 2 gusting 5 16.1
2016-Dec-07 11:58 324 16.1
2016-Dec-07 11:54 087 2 gusting 6 15.6
2016-Dec-07 11:50 149 1 gusting 6 16.1
2016-Dec-07 11:44 160 0 gusting 6 16.1
2016-Dec-07 11:40 122 3 gusting 7 16.1
2016-Dec-07 11:33 358 1 gusting 7 16.1
2016-Dec-07 11:29 115 2 gusting 2 16.1
2016-Dec-07 11:23 113 16.1
2016-Dec-07 11:19 154 15.6